[[{"header":{"parameterUnit":"m.s-1","parameterCategory":1,"la1":30.2991,"la2":30.254,"lo1":-89.0895,"lo2":-89.0444,"dy":0.0017,"dx":0.0017,"nx":28,"ny":28,"refTime":"2023-11-20T09:00:00:Z","depth":0,"parameterNumber":2,"parameterNumberName":"U-component_of_WINDS"},"data":[0,0,0,0,0,0,0,0,0,0,0,0,0,0,0,0,0,0,0,0,0,0,0,0,0,0,0,0,0,0,0,0,0,0,0,0,0,0,0,0,0,0,0,0,0,0,0,0,0,0,0,0,0,0,0,0,0,0,3.1653,3.1653,0,3.1608,3.1608,3.1607,3.1536,3.1534,3.1533,3.1532,3.1486,3.1486,3.1486,0,0,0,0,0,0,0,0,0,0,0,0,0,3.1681,3.1681,3.1653,3.1653,3.1652,3.1608,3.1608,3.1607,3.1536,3.1534,3.1533,3.1531,3.1486,3.1486,3.1486,0,0,0,0,0,0,0,0,0,0,0,0,0,3.1656,3.1681,3.1653,3.1611,3.1607,3.1609,3.1608,3.1607,3.1536,3.1534,3.1532,3.1531,3.1486,3.1486,3.1486,3.1525,0,0,3.1486,3.1486,0,0,0,0,0,0,0,0,3.1657,3.1655,3.1618,3.1614,3.1609,3.1576,3.1601,3.158,3.1537,3.1563,3.1532,3.153,3.1518,3.1515,3.1511,3.1523,3.1521,3.1486,3.1486,3.1486,3.1486,0,0,0,0,0,0,0,3.1659,3.1656,3.1635,3.1618,3.1612,3.1596,3.159,3.1596,3.1552,3.1561,3.1555,3.1551,3.1515,3.1511,3.1509,3.1521,3.1486,3.1486,3.1486,3.1486,3.1569,3.1571,0,0,0,0,0,0,3.1667,3.1658,3.1637,3.1634,3.1629,3.1597,3.1591,3.1588,3.1552,3.1544,3.1553,3.1548,3.1512,3.1509,3.1507,3.1554,3.1486,3.1486,3.1486,3.1566,3.1569,3.1571,0,0,0,0,0,0,3.1668,3.1665,3.1639,3.1645,3.164,3.1599,3.1597,3.1589,3.1584,3.1546,3.1538,3.1557,3.151,3.1507,3.1523,3.1551,3.1486,3.1486,3.1564,3.1567,3.157,3.1646,0,0,0,0,0,0,3.1669,3.1666,3.1679,3.1646,3.164,3.1654,3.1598,3.1589,3.1585,3.1578,3.1547,3.154,3.1509,3.1523,3.1523,3.155,3.1486,3.1561,3.1565,3.1569,3.1641,3.1651,3.1661,0,0,0,0,0,3.167,3.1701,3.168,3.1678,3.1655,3.1655,3.1652,3.1615,3.1587,3.1601,3.1577,3.1541,3.1548,3.1525,3.1524,3.1552,3.1559,3.1564,3.1569,3.1636,3.1649,3.166,0,0,0,0,0,0,3.1738,3.1696,3.1672,3.1693,3.1679,3.1643,3.1659,3.1629,3.1622,3.1616,3.157,3.1564,3.1586,3.157,3.1545,3.1591,3.1548,3.1553,3.16,3.1612,3.1622,3.1626,3.1486,0,0,0,0,0,3.1756,3.1759,3.1722,3.1744,3.1738,3.1701,3.1699,3.1672,3.1655,3.1648,3.1625,3.161,3.161,3.161,3.1607,3.1638,3.1633,3.1658,3.1668,3.1676,3.1681,3.1701,3.1713,3.1587,3.1587,3.1587,0,0,3.1792,3.177,3.1774,3.1758,3.1743,3.1749,3.1695,3.1702,3.1707,3.1649,3.1663,3.1646,3.1627,3.1652,3.1662,3.164,3.1715,3.1682,3.1689,3.1689,3.1707,3.1719,3.173,3.1591,3.159,3.159,0,0,3.1861,3.1843,3.1862,3.185,3.1829,3.1805,3.181,3.178,3.1767,3.178,3.1739,3.1744,3.1742,3.1732,3.1726,3.1798,3.1766,3.1798,3.185,3.187,3.188,3.1889,3.1917,3.1928,3.1803,3.1803,3.1803,0,3.1909,3.1915,3.1875,3.1887,3.1883,3.1832,3.1853,3.1843,3.1822,3.1821,3.1797,3.1798,3.1781,3.1805,3.1823,3.1819,3.1825,3.1801,3.1882,3.189,3.1897,3.1924,3.1935,3.1808,3.1807,3.1807,3.1806,0,3.1976,3.1982,3.2,3.1983,3.1981,3.1996,3.1962,3.1964,3.1939,3.1918,3.1935,3.1914,3.1908,3.1912,3.1886,3.1933,3.1921,3.189,3.1846,3.1914,3.1939,3.1948,3.1814,3.1812,3.1811,3.181,0,0,3.2084,3.2049,3.2057,3.2051,3.2027,3.2031,3.2046,3.2041,3.2046,3.2035,3.2048,3.2051,3.2024,3.2018,3.1991,3.2009,3.2071,3.1976,3.1975,3.1997,3.2127,3.2151,3.2164,3.205,3.2052,3.2053,3.2129,0,3.215,3.2174,3.2141,3.2173,3.218,3.2135,3.2149,3.2137,3.2119,3.2123,3.2103,3.2107,3.2069,3.2066,3.2081,3.206,3.2097,3.2054,3.2064,3.2065,3.2072,3.2176,3.22,3.2273,3.2138,3.214,3.2141,0,3.2229,3.2224,3.2257,3.2236,3.2237,3.225,3.2246,3.2249,3.2237,3.2223,3.2219,3.2188,3.2204,3.2163,3.2186,3.2158,3.216,3.2151,3.2153,3.2153,3.2108,3.2181,3.2295,3.2307,3.2155,3.2154,3.2153,0,3.2309,3.231,3.2331,3.2327,3.2301,3.2312,3.2303,3.2288,3.2289,3.2285,3.2286,3.2284,3.2283,3.2283,3.2254,3.2226,3.2282,3.2237,3.2273,3.2274,3.2287,3.2287,3.2405,3.2286,3.2286,3.2286,3.2286,0,3.2386,3.2409,3.2367,3.238,3.2405,3.2369,3.2396,3.2381,3.237,3.2381,3.2341,3.2353,3.2313,3.2321,3.2298,3.2323,3.2322,3.2313,3.2307,3.2317,3.2319,3.2319,3.2314,3.2289,3.2288,3.2288,3.2287,0,3.2478,3.2451,3.2472,3.2448,3.2442,3.2462,3.2442,3.2455,3.2436,3.2451,3.2452,3.2423,3.2431,3.2402,3.2404,3.2389,3.2427,3.2411,3.2431,3.2427,3.2466,3.2464,3.2589,3.2605,3.2475,3.2476,3.2477,0,3.253,3.2547,3.2526,3.2531,3.2524,3.2532,3.2534,3.25,3.2504,3.2493,3.2508,3.2513,3.2515,3.253,3.251,3.2513,3.2498,3.2542,3.2498,3.251,3.2502,3.2502,3.2505,3.2552,3.2553,3.2554,3.2555,0,3.2626,3.2613,3.2617,3.2617,3.2621,3.2619,3.2615,3.2622,3.2586,3.2593,3.2601,3.2603,3.2608,3.2614,3.2614,3.2605,3.2576,3.257,3.2579,3.259,3.2602,3.2599,3.2458,3.2567,3.2566,3.2565,3.2564,3.2564,3.2701,3.2716,3.2705,3.2712,3.2706,3.2704,3.2716,3.27,3.2706,3.2708,3.2688,3.2702,3.2693,3.2689,3.2684,3.2696,3.2675,3.2687,3.2691,3.2695,3.2702,3.26,3.2695,3.2695,3.2694,3.2694,3.2694,0,3.2797,3.2789,3.2796,3.2793,3.28,3.2772,3.2768,3.2775,3.2788,3.2782,3.2786,3.2798,3.2806,3.2787,3.2793,3.2806,3.2793,3.2808,3.2807,3.2807,3.2719,3.2712,3.2819,3.2819,3.2819,3.2819,3.2819,3.2819,3.2848,3.2873,3.286,3.2882,3.2874,3.2887,3.2888,3.2887,3.2883,3.2899,3.2905,3.2894,3.2884,3.2889,3.2896,3.289,3.2895,3.2916,3.2906,3.2825,3.2812,3.2801,3.2794,3.2917,3.2917,3.2993,3.2994,3.2995]},{"header":{"parameterUnit":"m.s-1","parameterCategory":1,"la1":30.2991,"la2":30.254,"lo1":-89.0895,"lo2":-89.0444,"dy":0.0017,"dx":0.0017,"nx":28,"ny":28,"refTime":"2023-11-20T09:00:00:Z","depth":0,"parameterNumber":3,"parameterNumberName":"V-component_of_WINDS"},"data":[0,0,0,0,0,0,0,0,0,0,0,0,0,0,0,0,0,0,0,0,0,0,0,0,0,0,0,0,0,0,0,0,0,0,0,0,0,0,0,0,0,0,0,0,0,0,0,0,0,0,0,0,0,0,0,0,0,0,4.758,4.7586,0,4.8148,4.8155,4.8161,4.8325,4.8322,4.8319,4.8316,4.8907,4.8925,4.8944,0,0,0,0,0,0,0,0,0,0,0,0,0,4.6645,4.6661,4.7579,4.7586,4.7593,4.8147,4.8155,4.8163,4.8326,4.8322,4.8318,4.8315,4.8901,4.8923,4.8946,0,0,0,0,0,0,0,0,0,0,0,0,0,4.7116,4.6666,4.7578,4.7741,4.7762,4.8145,4.8155,4.8165,4.8327,4.8322,4.8317,4.8313,4.8894,4.8921,4.8949,4.9213,0,0,4.9034,4.9046,0,0,0,0,0,0,0,0,4.7089,4.715,4.771,4.7731,4.7754,4.8161,4.8042,4.8517,4.8328,4.8113,4.8316,4.8311,4.8663,4.871,4.8827,4.9241,4.9266,4.9036,4.9053,4.9065,4.9073,0,0,0,0,0,0,0,4.7056,4.7126,4.7805,4.7718,4.7745,4.779,4.7851,4.8133,4.8407,4.8131,4.8144,4.8209,4.8675,4.88,4.8842,4.9275,4.9036,4.906,4.9078,4.9089,4.9941,4.9947,0,0,0,0,0,0,4.6994,4.7098,4.7787,4.7822,4.7403,4.781,4.7879,4.8035,4.8405,4.8456,4.8212,4.8214,4.8754,4.8809,4.8863,4.9203,4.9065,4.9091,4.9107,4.9935,4.9942,4.9949,0,0,0,0,0,0,4.6973,4.7054,4.7764,4.7464,4.7557,4.7831,4.8005,4.8049,4.8174,4.8466,4.8516,4.8289,4.8753,4.8824,4.9126,4.9226,4.9104,4.9129,4.9928,4.9937,4.9946,4.988,0,0,0,0,0,0,4.6946,4.7045,4.7146,4.7465,4.7573,4.8013,4.8011,4.8063,4.8221,4.8229,4.8551,4.8601,4.8755,4.9083,4.9154,4.9262,4.9151,4.9921,4.9932,4.9943,4.9875,4.9885,4.9895,0,0,0,0,0,4.6912,4.7106,4.7151,4.7233,4.7704,4.8019,4.8081,4.8252,4.8228,4.8334,4.8522,4.859,4.9201,4.9113,4.9193,4.9311,4.9915,4.9929,4.9942,4.987,4.9883,4.9894,0,0,0,0,0,0,4.6795,4.7151,4.7204,4.7507,4.7731,4.8046,4.8185,4.826,4.8498,4.8496,4.87,4.8772,4.906,4.9216,4.911,4.959,4.9561,4.9591,4.9479,4.9494,4.9503,4.9463,4.9174,0,0,0,0,0,4.6804,4.7026,4.7326,4.7564,4.7674,4.7909,4.8052,4.8164,4.8406,4.8503,4.8713,4.8947,4.9194,4.9351,4.9593,4.9896,4.9972,5.0017,5.0027,5.0034,5.0059,5.0237,5.0262,4.9992,4.9992,4.9992,0,0,4.6826,4.7048,4.7176,4.7546,4.7734,4.7964,4.7988,4.8229,4.8404,4.8541,4.884,4.9001,4.9277,4.9581,4.9726,4.972,5.015,5.0051,5.0054,5.0077,5.0253,5.0278,5.0301,5.0001,5.0,4.9998,0,0,4.6985,4.7172,4.7394,4.758,4.7862,4.8018,4.807,4.8375,4.8487,4.8788,4.8898,4.9108,4.9525,4.9719,4.9872,5.0104,5.0179,5.0177,5.0233,5.0403,5.0425,5.0445,5.0534,5.0562,5.02,5.02,5.02,0,4.6978,4.7326,4.7498,4.7736,4.7898,4.8029,4.8258,4.8431,4.8778,4.8889,4.8875,4.9404,4.9598,4.9953,5.0009,5.0126,5.0198,5.0144,5.0406,5.0429,5.045,5.0537,5.057,5.0199,5.0199,5.0199,5.0199,0,4.7306,4.7546,4.7691,4.8022,4.8199,4.843,4.8642,4.8801,4.8897,4.9055,4.9363,4.9601,4.9895,4.9986,5.0083,5.0356,5.0344,5.0365,5.0342,5.0471,5.0557,5.0591,5.0197,5.0197,5.0198,5.0198,0,0,4.7412,4.7833,4.7885,4.8038,4.8359,4.855,4.8788,4.9073,4.9209,4.9443,4.9653,5.0002,5.0025,5.0199,5.0318,5.0467,5.0643,5.0472,5.0482,5.0501,5.0966,5.0952,5.0987,5.0691,5.0698,5.0704,5.0945,0,4.7616,4.8045,4.8208,4.8561,4.8787,4.8915,4.9124,4.9345,4.9498,4.9716,4.9886,5.0133,5.0141,5.0248,5.04,5.0589,5.074,5.0573,5.0894,5.0903,5.0827,5.1032,5.1018,5.1234,5.0979,5.0985,5.0989,0,4.7912,4.8149,4.8523,4.8819,4.8921,4.9105,4.9382,4.9585,4.984,4.9942,5.0135,5.0245,5.0505,5.0459,5.0822,5.0705,5.0845,5.0958,5.0971,5.1013,5.0958,5.1085,5.1307,5.1341,5.1042,5.1038,5.1034,0,4.7959,4.8371,4.865,4.8776,4.9126,4.9254,4.9406,4.9656,4.9818,5.006,5.0169,5.0437,5.0587,5.0794,5.0976,5.0925,5.1325,5.1293,5.1422,5.1418,5.1506,5.1499,5.1759,5.1584,5.1584,5.1583,5.1582,0,4.8175,4.84,4.8676,4.8848,4.9106,4.9292,4.9543,4.9704,4.9925,5.0134,5.0259,5.0453,5.0678,5.0903,5.1046,5.1329,5.1393,5.1487,5.1524,5.148,5.1469,5.158,5.1572,5.1592,5.159,5.1588,5.1587,0,4.8273,4.8466,4.878,4.9084,4.9167,4.9344,4.9607,4.9782,4.9939,5.0202,5.0274,5.0524,5.0794,5.0994,5.1344,5.1441,5.1745,5.1779,5.1659,5.1679,5.1798,5.1787,5.2144,5.2204,5.1981,5.1983,5.1984,0,4.8401,4.8578,4.8901,4.9049,4.92,4.9436,4.9602,4.9791,4.9959,5.0264,5.0402,5.068,5.0914,5.1341,5.1556,5.1826,5.1872,5.1978,5.1914,5.1865,5.1882,5.1872,5.1894,5.1989,5.1991,5.1992,5.1993,0,4.861,4.8697,4.8929,4.9197,4.939,4.9611,4.9833,4.9947,5.0177,5.036,5.0637,5.0817,5.1174,5.1452,5.1743,5.1904,5.199,5.201,5.2056,5.2016,5.1942,5.1991,5.169,5.2003,5.2002,5.2001,5.2001,5.2,4.8733,4.8898,4.9152,4.9408,4.9594,4.9799,4.9979,5.0158,5.0391,5.0696,5.0793,5.1081,5.1335,5.1734,5.1898,5.2129,5.2128,5.2192,5.221,5.2224,5.2225,5.1898,5.2182,5.2182,5.2182,5.2182,5.2182,0,4.8954,4.9123,4.9356,4.9663,4.9866,4.9922,5.0172,5.0339,5.059,5.0817,5.1044,5.1364,5.1634,5.1868,5.2149,5.2289,5.2336,5.2358,5.2353,5.239,5.2206,5.2142,5.2315,5.2315,5.2315,5.2315,5.2315,5.2315,4.9094,4.9377,4.9494,4.9872,5.0041,5.0322,5.0461,5.0652,5.0835,5.1186,5.141,5.1559,5.1793,5.2091,5.2343,5.2406,5.2506,5.252,5.2592,5.2418,5.2402,5.2387,5.2328,5.2538,5.2538,5.2759,5.276,5.2762]}]]